Location: Marcé
(47.5801°N, 0.3280°W)
Time: 03:33:51
(UTC+01:00)

Vanguard 1 - Pass Details

Date: 07 December 2021
Orbit: 652 x 3830 km, 34.2° (Epoch: 21 January)

Event Time Altitude Azimuth Distance (km) Brightness Sun altitude
Rises 00:07:15 0° 230° (SW) 6,868 14.3 -63.4°
Enters shadow 00:08:40 - 228° (SW) 6,635 14.2 -63.5°
Exits shadow 00:49:46 15° 96° (E) 6,080 13.9 -65.0°
Drops below altitude 10° 00:51:52 10° 94° (E) 6,390 14.1 -65.0°
Sets 00:56:25 0° 89° (E) 7,116 14.5 -65.0°
